Weather History for Manchester, NH

Change the Weather History Date:

Wednesday, March 12, 2014

  Actual Average Record
Temperature  
Mean Temperature 36 °F -  
Max Temperature 39 °F 43 °F 71 °F (2012)
Min Temperature 34 °F 20 °F 0 °F (1996)
Degree Days  
Heating Degree Days 28    
Moisture  
Dew Point 33 °F    
Average Humidity 86    
Maximum Humidity 97    
Minimum Humidity 73    
Precipitation  
Precipitation 0.39 in - - ()
Snow  
Snow 0.00 in - - ()
Snow Depth 5.00 in    
Sea Level Pressure  
Sea Level Pressure 29.44 in    
Wind  
Wind Speed 5 mph (North)    
Max Wind Speed 16 mph    
Max Gust Speed -    
Visibility 7 miles    
Events Rain , Snow    
Averages and records for this station are not official NWS values.
T = Trace of Precipitation, MM = Missing Value Source: NWS Daily Summary

Daily Weather History Graph

Daily Weather History Graph

Search for Another Location

Airport:

Trip Planner

Search our weather history database for the weather conditions in past years. The results will help you decide how hot, cold, wet, or windy it might be!

Date:

Astronomy

Mar. 12, 2014 Rise Set
Actual Time 7:03 AM EDT 6:48 PM EDT
Civil Twilight 6:34 AM EDT 7:16 PM EDT
Nautical Twilight 6:02 AM EDT 7:49 PM EDT
Astronomical Twilight 5:28 AM EDT 8:23 PM EDT
Moon 3:12 PM EDT (3/12) 4:37 AM EDT (3/12)
Length of Visible Light 12h 41m
Length of Day
11h 45m
Waxing Gibbous, 85% of the Moon is Illuminated
Mar 12
Waxing Gibbous
Mar 16
Full
Mar 23
Last Quarter
Mar 30
New
Apr 7
First Quarter

Hourly Weather History & Observations

Time (EDT) Temp. Windchill Dew Point Humidity Pressure Visibility Wind Dir Wind Speed Gust Speed Precip Events Conditions
12:53 AM 36.0 °F - 28.0 °F 73% 29.75 in 10.0 mi Calm Calm - N/A   Overcast
1:53 AM 36.0 °F - 28.0 °F 73% 29.75 in 10.0 mi Calm Calm - N/A   Overcast
2:53 AM 36.0 °F - 28.0 °F 73% 29.74 in 10.0 mi Calm Calm - N/A   Overcast
3:53 AM 35.1 °F 31.0 °F 28.0 °F 76% 29.72 in 10.0 mi NNW 4.6 mph - N/A   Overcast
4:53 AM 35.1 °F 32.2 °F 28.9 °F 78% 29.71 in 10.0 mi North 3.5 mph - N/A   Overcast
5:53 AM 35.1 °F 31.0 °F 28.9 °F 78% 29.72 in 10.0 mi North 4.6 mph - N/A   Overcast
6:53 AM 36.0 °F 30.3 °F 28.9 °F 76% 29.72 in 10.0 mi NNW 6.9 mph - N/A   Overcast
7:53 AM 35.1 °F 32.2 °F 28.9 °F 78% 29.71 in 9.0 mi North 3.5 mph - 0.00 in Rain Light Rain
8:53 AM 36.0 °F 32.1 °F 30.0 °F 79% 29.70 in 9.0 mi NNW 4.6 mph - 0.00 in   Overcast
9:53 AM 36.0 °F 33.3 °F 30.9 °F 82% 29.68 in 8.0 mi NNW 3.5 mph - N/A   Overcast
10:53 AM 37.9 °F 33.5 °F 32.0 °F 79% 29.64 in 7.0 mi NNW 5.8 mph - N/A   Overcast
11:53 AM 39.9 °F 35.1 °F 34.0 °F 79% 29.59 in 9.0 mi NNE 6.9 mph - 0.00 in   Overcast
12:53 PM 39.0 °F 32.8 °F 35.1 °F 86% 29.57 in 6.0 mi North 9.2 mph - 0.00 in Rain Light Rain
1:33 PM 39.0 °F 31.8 °F 35.1 °F 86% 29.47 in 6.0 mi NNE 11.5 mph - 0.00 in Rain Light Rain
1:53 PM 39.0 °F 32.8 °F 35.1 °F 86% 29.50 in 5.0 mi NNE 9.2 mph - 0.00 in Rain Light Rain
2:53 PM 37.9 °F 30.9 °F 36.0 °F 93% 29.44 in 3.0 mi NE 10.4 mph - 0.06 in Rain Light Rain
3:53 PM 37.9 °F 30.9 °F 36.0 °F 93% 29.38 in 7.0 mi NE 10.4 mph - 0.00 in   Overcast
4:53 PM 37.9 °F 30.9 °F 36.0 °F 93% 29.31 in 3.0 mi NNE 10.4 mph - 0.01 in Rain Light Rain
5:53 PM 37.9 °F 33.5 °F 36.0 °F 93% 29.26 in 3.0 mi Variable 5.8 mph - 0.04 in Rain Light Rain
6:53 PM 37.0 °F 30.4 °F 36.0 °F 96% 29.19 in 3.0 mi NE 9.2 mph - 0.06 in Rain Light Rain
7:53 PM 37.0 °F 32.4 °F 36.0 °F 96% 29.14 in 4.0 mi NE 5.8 mph - 0.11 in Rain Light Rain
8:27 PM 37.0 °F 32.4 °F 36.0 °F 96% 29.09 in 4.0 mi North 5.8 mph - 0.05 in Rain Rain
8:53 PM 36.0 °F 29.6 °F 35.1 °F 97% 29.13 in 6.0 mi NNW 8.1 mph - 0.07 in Rain Light Rain
9:48 PM 35.6 °F 26.2 °F 33.8 °F 93% 29.07 in 2.5 mi North 15.0 mph - 0.02 in Rain , Snow Light Rain
9:53 PM 35.1 °F 25.9 °F 34.0 °F 96% 29.13 in 3.0 mi North 13.8 mph - 0.03 in Rain , Snow Light Rain
10:53 PM 34.0 °F 24.2 °F 33.1 °F 96% 29.13 in 3.0 mi NNW 15.0 mph - 0.01 in Rain , Snow Light Rain
11:37 PM 34.0 °F 23.8 °F 32.0 °F 92% 29.05 in 10.0 mi North 16.1 mph - 0.00 in   Overcast
11:53 PM 35.1 °F 26.4 °F 32.0 °F 89% 29.09 in 10.0 mi NNE 12.7 mph - 0.00 in   Overcast